This demonstration page uses our WeatherBlox Daily Observations layout. Learn more.

Left ArrowRight Arrow

Hourly Observations for May 23, 2018

Temp ( °F °C ) Dew Point ( °F °C ) Humidity (%) Winds ( mph kmh ) Pressure ( in mb ) Visibility ( mi km ) Precip ( " mm )
12:56 am 00:56 Clear 73 22.8 63 17.2 71 71 S 18 30 29.89 1012 10 16 0.00 0.00
1:56 am 01:56 Clear 71 21.7 62 16.7 73 73 SSE 12 19 29.90 1013 10 16 0.00 0.00
2:56 am 02:56 Clear 69 20.6 62 16.7 78 78 S 12 19 29.89 1012 10 16 0.00 0.00
3:56 am 03:56 Clear 67 19.4 62 16.7 84 84 S 12 19 29.90 1013 10 16 0.00 0.00
4:56 am 04:56 Clear 68 20 62 16.7 81 81 S 14 22 29.90 1013 10 16 0.00 0.00
5:56 am 05:56 Mostly Clear 67 19.4 61 16.1 81 81 S 13 20 29.92 1013 10 16 0.00 0.00
6:56 am 06:56 Partly Cloudy 68 20 61 16.1 78 78 SSE 13 20 29.94 1014 10 16 0.00 0.00
7:56 am 07:56 Mostly Sunny 71 21.7 63 17.2 76 76 S 10 17 29.95 1014 10 16 0.00 0.00
8:20 am 08:20 Mostly Cloudy 72 22 63 17 73 73 S 17 28 29.91 1013 10 16 0.00 0.00
8:56 am 08:56 Sunny 72 22.2 64 17.8 76 76 SSW 14 22 29.96 1015 10 16 0.00 0.00
9:26 am 09:26 Mostly Cloudy 73 23 64 18 74 74 S 17 28 29.94 1014 10 16 0.00 0.00
9:56 am 09:56 Sunny 78 25.6 64 17.8 62 62 S 20 31 29.96 1014 10 16 0.00 0.00
10:56 am 10:56 Mostly Cloudy 79 26.1 61 16.1 54 54 SSW 15 24 29.96 1015 10 16 0.00 0.00
11:39 am 11:39 Mostly Cloudy 81 27 61 16 51 51 SW 13 20 29.91 1013 10 16 0.00 0.00
11:56 am 11:56 Mostly Sunny 79 26.1 62 16.7 56 56 SW 13 20 29.96 1015 10 16 0.00 0.00
12:56 pm 12:56 Sunny 84 28.9 62 16.7 48 48 S 18 30 29.93 1014 10 16 0.00 0.00
1:56 pm 13:56 Mostly Sunny 87 30.6 63 17.2 45 45 SSE 20 31 29.92 1013 10 16 0.00 0.00
2:54 pm 14:54 Partly Cloudy 84 29 61 16 45 45 S 22 35 29.83 1010 10 16 0.00 0.00
2:56 pm 14:56 Mostly Cloudy 84 28.9 60 15.6 44 44 S 21 33 29.90 1013 10 16 0.00 0.00
3:13 pm 15:13 Mostly Cloudy with Nearby Thunderstorms 84 29 61 16 45 45 S 30 48 29.80 1009 10 16 0.00 0.00
3:56 pm 15:56 Sunny 85 29.4 61 16.1 45 45 S 22 35 29.89 1012 10 16 0.00 0.00
4:56 pm 16:56 Mostly Sunny 83 28.3 58 14.4 43 43 S 24 39 29.89 1012 10 16 0.00 0.00
5:56 pm 17:56 Sunny 78 25.6 62 16.7 58 58 S 15 24 29.91 1013 10 16 0.00 0.00
6:56 pm 18:56 Sunny 77 25 62 16.7 60 60 SSE 10 17 29.91 1013 10 16 0.00 0.00
7:56 pm 19:56 Sunny 76 24.4 64 17.8 67 67 SSE 10 17 29.90 1013 10 16 0.00 0.00
8:56 pm 20:56 Clear 74 23.3 64 17.8 71 71 SSE 10 17 29.90 1013 10 16 0.00 0.00
9:56 pm 21:56 Clear 74 23.3 61 16.1 64 64 SSE 15 24 29.91 1013 10 16 0.00 0.00
10:56 pm 22:56 Clear 73 22.8 61 16.1 66 66 SSE 15 24 29.91 1013 10 16 0.00 0.00
11:56 pm 23:56 Clear 71 21.7 61 16.1 71 71 SSE 14 22 29.93 1013 10 16 0.00 0.00

Powered by AerisWeather